Time,TemperatureF,DewpointF,PressureIn,WindDirection,WindDirectionDegrees,WindSpeedMPH,WindSpeedGustMPH,Humidity,HourlyPrecipIn,Conditions,Clouds,dailyrainin,SoftwareType,DateUTC
2013-07-19 00:01:00,76.0,73.2,29.89,SE,142,0.0,1.0,91,0.00,,,0.00,Wunderground v.1.15,2013-07-19 04:01:00,
2013-07-19 00:02:00,76.0,73.2,29.89,SE,142,0.0,1.0,91,0.00,,,0.00,Wunderground v.1.15,2013-07-19 04:02:00,
2013-07-19 00:06:00,76.0,73.2,29.89,SE,142,0.0,1.0,91,0.00,,,0.00,Wunderground v.1.15,2013-07-19 04:06:00,
2013-07-19 00:07:00,76.0,73.2,29.89,SE,142,0.0,1.0,91,0.00,,,0.00,Wunderground v.1.15,2013-07-19 04:07:00,
2013-07-19 00:11:00,76.0,73.2,29.89,SE,142,0.0,0.0,91,0.00,,,0.00,Wunderground v.1.15,2013-07-19 04:11:00,
2013-07-19 00:17:00,75.8,73.3,29.89,SE,142,0.0,0.0,92,0.00,,,0.00,Wunderground v.1.15,2013-07-19 04:17:00,
2013-07-19 00:22:00,75.8,73.3,29.89,SE,142,0.0,0.0,92,0.00,,,0.00,Wunderground v.1.15,2013-07-19 04:22:00,
2013-07-19 00:27:00,75.6,73.1,29.89,SE,142,0.0,0.0,92,0.00,,,0.00,Wunderground v.1.15,2013-07-19 04:27:00,
2013-07-19 00:33:00,75.6,72.8,29.89,SE,142,0.0,0.0,91,0.00,,,0.00,Wunderground v.1.15,2013-07-19 04:33:00,
2013-07-19 00:39:00,75.6,72.5,29.89,SE,142,0.0,0.0,90,0.00,,,0.00,Wunderground v.1.15,2013-07-19 04:39:00,
2013-07-19 00:45:00,75.6,72.5,29.88,SE,142,0.0,0.0,90,0.00,,,0.00,Wunderground v.1.15,2013-07-19 04:45:00,
2013-07-19 00:51:00,75.6,72.5,29.88,SE,142,0.0,0.0,90,0.00,,,0.00,Wunderground v.1.15,2013-07-19 04:51:00,
2013-07-19 00:57:00,75.6,72.5,29.88,SE,142,0.0,0.0,90,0.00,,,0.00,Wunderground v.1.15,2013-07-19 04:57:00,
2013-07-19 01:03:00,75.4,72.3,29.87,SE,142,0.0,0.0,90,0.00,,,0.00,Wunderground v.1.15,2013-07-19 05:03:00,
2013-07-19 01:09:00,75.3,72.2,29.87,SE,142,0.0,0.0,90,0.00,,,0.00,Wunderground v.1.15,2013-07-19 05:09:00,
2013-07-19 01:14:00,75.3,72.2,29.88,SE,142,0.0,0.0,90,0.00,,,0.00,Wunderground v.1.15,2013-07-19 05:14:00,
2013-07-19 01:20:00,75.1,72.3,29.88,SE,142,0.0,0.0,91,0.00,,,0.00,Wunderground v.1.15,2013-07-19 05:20:00,
2013-07-19 01:25:00,75.1,72.3,29.88,SE,142,0.0,0.0,91,0.00,,,0.00,Wunderground v.1.15,2013-07-19 05:25:00,
2013-07-19 01:30:00,75.1,72.3,29.88,SE,142,0.0,0.0,91,0.00,,,0.00,Wunderground v.1.15,2013-07-19 05:30:00,
2013-07-19 01:36:00,74.9,72.4,29.88,SE,142,0.0,0.0,92,0.00,,,0.00,Wunderground v.1.15,2013-07-19 05:36:00,
2013-07-19 01:42:00,75.1,72.3,29.88,SE,142,0.0,0.0,91,0.00,,,0.00,Wunderground v.1.15,2013-07-19 05:42:00,
2013-07-19 01:47:00,75.1,72.3,29.87,SE,142,0.0,0.0,91,0.00,,,0.00,Wunderground v.1.15,2013-07-19 05:47:00,
2013-07-19 01:52:00,75.1,72.3,29.87,SE,142,0.0,0.0,91,0.00,,,0.00,Wunderground v.1.15,2013-07-19 05:52:00,
2013-07-19 01:57:00,74.9,72.4,29.86,SE,141,0.0,3.0,92,0.00,,,0.00,Wunderground v.1.15,2013-07-19 05:57:00,
2013-07-19 02:02:00,74.9,72.4,29.86,SE,141,0.0,1.0,92,0.00,,,0.00,Wunderground v.1.15,2013-07-19 06:02:00,
2013-07-19 02:07:00,74.7,72.2,29.86,SE,140,0.0,2.0,92,0.00,,,0.00,Wunderground v.1.15,2013-07-19 06:07:00,
2013-07-19 02:12:00,74.6,72.1,29.85,SE,142,0.0,1.0,92,0.00,,,0.00,Wunderground v.1.15,2013-07-19 06:12:00,
2013-07-19 02:17:00,74.6,72.4,29.85,SE,142,0.0,4.0,93,0.00,,,0.00,Wunderground v.1.15,2013-07-19 06:17:00,
2013-07-19 02:22:00,74.6,72.4,29.85,SE,143,0.0,4.0,93,0.00,,,0.00,Wunderground v.1.15,2013-07-19 06:22:00,
2013-07-19 02:27:00,74.4,72.2,29.85,SE,142,4.0,4.0,93,0.00,,,0.00,Wunderground v.1.15,2013-07-19 06:27:00,
2013-07-19 02:32:00,74.4,72.2,29.85,SE,140,0.0,3.0,93,0.00,,,0.00,Wunderground v.1.15,2013-07-19 06:32:00,
2013-07-19 02:37:00,74.2,72.0,29.85,SE,141,0.0,7.0,93,0.00,,,0.00,Wunderground v.1.15,2013-07-19 06:37:00,
2013-07-19 02:42:00,74.2,72.0,29.85,SE,141,0.0,4.0,93,0.00,,,0.00,Wunderground v.1.15,2013-07-19 06:42:00,
2013-07-19 02:47:00,74.0,72.2,29.85,SE,141,3.0,4.0,94,0.00,,,0.00,Wunderground v.1.15,2013-07-19 06:47:00,
2013-07-19 02:52:00,74.0,72.2,29.85,SE,141,0.0,2.0,94,0.00,,,0.00,Wunderground v.1.15,2013-07-19 06:52:00,
2013-07-19 02:57:00,73.9,72.1,29.84,SE,141,0.0,4.0,94,0.00,,,0.00,Wunderground v.1.15,2013-07-19 06:57:00,
2013-07-19 03:02:00,73.7,71.9,29.84,SE,142,4.0,7.0,94,0.00,,,0.00,Wunderground v.1.15,2013-07-19 07:02:00,
2013-07-19 03:07:00,73.7,71.9,29.84,SE,144,0.0,7.0,94,0.00,,,0.00,Wunderground v.1.15,2013-07-19 07:07:00,
2013-07-19 03:12:00,73.5,72.0,29.83,SE,144,0.0,2.0,95,0.00,,,0.00,Wunderground v.1.15,2013-07-19 07:12:00,
2013-07-19 03:18:00,73.5,72.0,29.83,SE,144,2.0,2.0,95,0.00,,,0.00,Wunderground v.1.15,2013-07-19 07:18:00,
2013-07-19 03:23:00,73.3,71.8,29.83,SE,144,0.0,2.0,95,0.00,,,0.00,Wunderground v.1.15,2013-07-19 07:23:00,
2013-07-19 03:28:00,73.2,71.7,29.83,SE,144,0.0,5.0,95,0.00,,,0.00,Wunderground v.1.15,2013-07-19 07:28:00,
2013-07-19 03:33:00,73.2,71.7,29.83,SE,144,4.0,4.0,95,0.00,,,0.00,Wunderground v.1.15,2013-07-19 07:33:00,
2013-07-19 03:38:00,73.0,71.5,29.83,SE,144,0.0,5.0,95,0.00,,,0.00,Wunderground v.1.15,2013-07-19 07:38:00,
2013-07-19 03:43:00,73.0,71.5,29.82,SSE,147,0.0,5.0,95,0.00,,,0.00,Wunderground v.1.15,2013-07-19 07:43:00,
2013-07-19 03:48:00,73.0,71.5,29.82,SSE,147,0.0,5.0,95,0.00,,,0.00,Wunderground v.1.15,2013-07-19 07:48:00,
2013-07-19 03:53:00,73.2,71.7,29.82,SE,146,0.0,7.0,95,0.00,,,0.00,Wunderground v.1.15,2013-07-19 07:53:00,
2013-07-19 03:58:00,73.2,71.4,29.81,SE,146,3.0,7.0,94,0.00,,,0.00,Wunderground v.1.15,2013-07-19 07:58:00,
2013-07-19 04:03:00,73.3,71.5,29.81,SSE,147,0.0,4.0,94,0.00,,,0.00,Wunderground v.1.15,2013-07-19 08:03:00,
2013-07-19 04:09:00,73.5,71.7,29.81,SSE,147,0.0,4.0,94,0.00,,,0.00,Wunderground v.1.15,2013-07-19 08:09:00,
2013-07-19 04:14:00,73.7,71.9,29.81,SSE,149,0.0,5.0,94,0.00,,,0.00,Wunderground v.1.15,2013-07-19 08:14:00,
2013-07-19 04:19:00,74.2,72.0,29.81,SSE,162,4.0,9.0,93,0.00,,,0.00,Wunderground v.1.15,2013-07-19 08:19:00,
2013-07-19 04:24:00,74.7,71.9,29.81,SSE,161,2.0,9.0,91,0.00,,,0.00,Wunderground v.1.15,2013-07-19 08:24:00,
2013-07-19 04:29:00,75.1,72.0,29.81,SSE,159,1.0,9.0,90,0.00,,,0.00,Wunderground v.1.15,2013-07-19 08:29:00,
2013-07-19 04:34:00,75.1,71.6,29.81,SSE,155,0.0,6.0,89,0.00,,,0.00,Wunderground v.1.15,2013-07-19 08:34:00,
2013-07-19 04:39:00,75.1,71.6,29.81,SSE,157,0.0,11.0,89,0.00,,,0.00,Wunderground v.1.15,2013-07-19 08:39:00,
2013-07-19 04:45:00,75.1,71.6,29.81,South,169,1.0,8.0,89,0.00,,,0.00,Wunderground v.1.15,2013-07-19 08:45:00,
2013-07-19 04:50:00,74.9,71.4,29.81,South,169,3.0,3.0,89,0.00,,,0.00,Wunderground v.1.15,2013-07-19 08:50:00,
2013-07-19 04:55:00,74.7,71.2,29.81,SE,146,0.0,7.0,89,0.00,,,0.00,Wunderground v.1.15,2013-07-19 08:55:00,
2013-07-19 05:00:00,74.7,71.2,29.81,SE,138,0.0,1.0,89,0.00,,,0.00,Wunderground v.1.15,2013-07-19 09:00:00,
2013-07-19 05:05:00,74.9,71.4,29.81,SE,142,0.0,7.0,89,0.00,,,0.00,Wunderground v.1.15,2013-07-19 09:05:00,
2013-07-19 05:10:00,74.9,71.4,29.81,SE,143,0.0,1.0,89,0.00,,,0.00,Wunderground v.1.15,2013-07-19 09:10:00,
2013-07-19 05:15:00,74.7,71.2,29.81,SE,142,3.0,5.0,89,0.00,,,0.00,Wunderground v.1.15,2013-07-19 09:15:00,
2013-07-19 05:20:00,74.7,71.2,29.81,SE,140,0.0,8.0,89,0.00,,,0.00,Wunderground v.1.15,2013-07-19 09:20:00,
2013-07-19 05:25:00,74.7,71.2,29.81,SE,141,0.0,10.0,89,0.00,,,0.00,Wunderground v.1.15,2013-07-19 09:25:00,
2013-07-19 05:30:00,74.7,71.2,29.81,SSE,153,4.0,4.0,89,0.00,,,0.00,Wunderground v.1.15,2013-07-19 09:30:00,
2013-07-19 05:35:00,74.9,71.4,29.81,SSE,165,0.0,9.0,89,0.00,,,0.00,Wunderground v.1.15,2013-07-19 09:35:00,
2013-07-19 05:40:00,75.1,71.6,29.81,SSE,163,11.0,11.0,89,0.00,,,0.00,Wunderground v.1.15,2013-07-19 09:40:00,
2013-07-19 05:45:00,75.4,71.6,29.81,SSE,159,5.0,12.0,88,0.00,,,0.00,Wunderground v.1.15,2013-07-19 09:45:00,
2013-07-19 05:50:00,75.6,71.5,29.81,SSE,165,1.0,4.0,87,0.00,,,0.00,Wunderground v.1.15,2013-07-19 09:50:00,
2013-07-19 05:55:00,75.6,71.5,29.81,SSE,168,0.0,14.0,87,0.00,,,0.00,Wunderground v.1.15,2013-07-19 09:55:00,
2013-07-19 06:00:00,75.8,71.7,29.81,SSE,158,4.0,4.0,87,0.00,,,0.00,Wunderground v.1.15,2013-07-19 10:00:00,
2013-07-19 06:05:00,75.6,71.5,29.81,SE,145,6.0,13.0,87,0.00,,,0.00,Wunderground v.1.15,2013-07-19 10:05:00,
2013-07-19 06:10:00,75.6,71.5,29.81,SSE,164,1.0,15.0,87,0.00,,,0.00,Wunderground v.1.15,2013-07-19 10:10:00,
2013-07-19 06:15:00,75.6,71.5,29.81,SSE,148,1.0,12.0,87,0.00,,,0.00,Wunderground v.1.15,2013-07-19 10:15:00,
2013-07-19 06:20:00,75.6,71.5,29.81,South,180,7.0,12.0,87,0.00,,,0.00,Wunderground v.1.15,2013-07-19 10:20:00,
2013-07-19 06:25:00,75.8,71.7,29.81,SE,140,3.0,13.0,87,0.00,,,0.00,Wunderground v.1.15,2013-07-19 10:25:00,
2013-07-19 06:30:00,75.8,71.7,29.81,SSE,155,6.0,6.0,87,0.00,,,0.00,Wunderground v.1.15,2013-07-19 10:30:00,
2013-07-19 06:35:00,75.8,71.7,29.81,SSE,153,0.0,12.0,87,0.00,,,0.00,Wunderground v.1.15,2013-07-19 10:35:00,
2013-07-19 06:40:00,75.8,71.7,29.81,ESE,123,0.0,5.0,87,0.00,,,0.00,Wunderground v.1.15,2013-07-19 10:40:00,
2013-07-19 06:45:00,76.0,71.8,29.81,SE,146,3.0,11.0,87,0.00,,,0.00,Wunderground v.1.15,2013-07-19 10:45:00,
2013-07-19 06:50:00,76.0,71.8,29.81,SE,136,1.0,4.0,87,0.00,,,0.00,Wunderground v.1.15,2013-07-19 10:50:00,
2013-07-19 06:55:00,76.1,71.9,29.81,SSE,166,1.0,10.0,87,0.00,,,0.00,Wunderground v.1.15,2013-07-19 10:55:00,
2013-07-19 07:00:00,76.5,72.3,29.80,South,180,1.0,3.0,87,0.00,,,0.00,Wunderground v.1.15,2013-07-19 11:00:00,
2013-07-19 07:05:00,76.8,71.9,29.80,South,173,0.0,13.0,85,0.00,,,0.00,Wunderground v.1.15,2013-07-19 11:05:00,
2013-07-19 07:10:00,77.4,72.5,29.80,South,176,8.0,8.0,85,0.00,,,0.00,Wunderground v.1.15,2013-07-19 11:10:00,
2013-07-19 07:15:00,77.6,72.4,29.80,South,190,0.0,10.0,84,0.00,,,0.00,Wunderground v.1.15,2013-07-19 11:15:00,
2013-07-19 07:20:00,78.1,72.2,29.80,SSE,162,5.0,8.0,82,0.00,,,0.00,Wunderground v.1.15,2013-07-19 11:20:00,
2013-07-19 07:25:00,78.3,72.3,29.80,SSE,167,0.0,9.0,82,0.00,,,0.00,Wunderground v.1.15,2013-07-19 11:25:00,
2013-07-19 07:30:00,78.5,72.2,29.79,SE,130,11.0,16.0,81,0.00,,,0.00,Wunderground v.1.15,2013-07-19 11:30:00,
2013-07-19 07:35:00,78.6,71.9,29.79,SSE,150,13.0,16.0,80,0.00,,,0.00,Wunderground v.1.15,2013-07-19 11:35:00,
2013-07-19 07:40:00,79.0,71.9,29.79,SE,145,12.0,16.0,79,0.00,,,0.00,Wunderground v.1.15,2013-07-19 11:40:00,
2013-07-19 07:45:00,79.2,72.1,29.79,SE,142,6.0,16.0,79,0.00,,,0.00,Wunderground v.1.15,2013-07-19 11:45:00,
2013-07-19 07:50:00,79.4,71.9,29.79,SSE,165,10.0,10.0,78,0.00,,,0.01,Wunderground v.1.15,2013-07-19 11:50:00,
2013-07-19 07:55:00,79.6,72.1,29.79,South,171,5.0,15.0,78,0.00,,,0.01,Wunderground v.1.15,2013-07-19 11:55:00,
2013-07-19 08:00:00,79.8,71.9,29.79,South,180,10.0,13.0,77,0.00,,,0.01,Wunderground v.1.15,2013-07-19 12:00:00,
2013-07-19 08:06:00,79.9,72.0,29.79,SSW,200,11.0,16.0,77,0.00,,,0.01,Wunderground v.1.15,2013-07-19 12:06:00,
2013-07-19 08:11:00,80.1,72.2,29.79,SSE,153,12.0,12.0,77,0.00,,,0.01,Wunderground v.1.15,2013-07-19 12:11:00,
2013-07-19 08:16:00,80.1,72.2,29.78,South,190,11.0,19.0,77,0.00,,,0.01,Wunderground v.1.15,2013-07-19 12:16:00,
2013-07-19 08:21:00,80.3,72.4,29.78,SSW,213,10.0,12.0,77,0.00,,,0.01,Wunderground v.1.15,2013-07-19 12:21:00,
2013-07-19 08:26:00,80.7,72.4,29.78,SSW,196,10.0,18.0,76,0.00,,,0.01,Wunderground v.1.15,2013-07-19 12:26:00,
2013-07-19 08:31:00,80.9,72.2,29.78,SSE,161,7.0,13.0,75,0.00,,,0.01,Wunderground v.1.15,2013-07-19 12:31:00,
2013-07-19 08:36:00,81.1,72.4,29.78,SSE,154,7.0,16.0,75,0.00,,,0.01,Wunderground v.1.15,2013-07-19 12:36:00,
2013-07-19 08:41:00,81.1,72.4,29.78,South,177,6.0,10.0,75,0.00,,,0.01,Wunderground v.1.15,2013-07-19 12:41:00,
2013-07-19 08:46:00,81.2,72.1,29.78,SE,142,12.0,16.0,74,0.00,,,0.01,Wunderground v.1.15,2013-07-19 12:46:00,
2013-07-19 08:51:00,81.4,72.7,29.78,South,173,7.0,12.0,75,0.00,,,0.01,Wunderground v.1.15,2013-07-19 12:51:00,
2013-07-19 08:56:00,81.4,72.3,29.78,South,180,7.0,18.0,74,0.00,,,0.01,Wunderground v.1.15,2013-07-19 12:56:00,
2013-07-19 09:01:00,81.6,72.5,29.78,SSW,207,11.0,12.0,74,0.00,,,0.01,Wunderground v.1.15,2013-07-19 13:01:00,
2013-07-19 09:06:00,82.2,73.1,29.78,South,182,7.0,12.0,74,0.00,,,0.01,Wunderground v.1.15,2013-07-19 13:06:00,
2013-07-19 09:12:00,82.2,72.7,29.78,South,178,6.0,12.0,73,0.00,,,0.01,Wunderground v.1.15,2013-07-19 13:12:00,
2013-07-19 09:17:00,82.2,73.1,29.78,SSE,147,10.0,15.0,74,0.00,,,0.01,Wunderground v.1.15,2013-07-19 13:17:00,
2013-07-19 09:22:00,82.2,73.1,29.78,South,176,15.0,16.0,74,0.00,,,0.01,Wunderground v.1.15,2013-07-19 13:22:00,
2013-07-19 09:26:00,82.4,73.7,29.78,SSE,159,4.0,17.0,75,0.00,,,0.01,Wunderground v.1.15,2013-07-19 13:26:00,
2013-07-19 09:31:00,82.4,72.9,29.77,South,182,10.0,17.0,73,0.00,,,0.01,Wunderground v.1.15,2013-07-19 13:31:00,
2013-07-19 09:36:00,82.8,73.3,29.77,SE,144,6.0,17.0,73,0.00,,,0.01,Wunderground v.1.15,2013-07-19 13:36:00,
2013-07-19 09:41:00,83.2,73.2,29.77,SSE,161,9.0,15.0,72,0.00,,,0.01,Wunderground v.1.15,2013-07-19 13:41:00,
2013-07-19 09:46:00,83.4,73.8,29.76,SSE,168,2.0,15.0,73,0.00,,,0.01,Wunderground v.1.15,2013-07-19 13:46:00,
2013-07-19 09:51:00,83.8,73.8,29.76,South,173,10.0,13.0,72,0.00,,,0.01,Wunderground v.1.15,2013-07-19 13:51:00,
2013-07-19 09:56:00,83.8,73.8,29.76,SSE,159,10.0,18.0,72,0.00,,,0.01,Wunderground v.1.15,2013-07-19 13:56:00,
2013-07-19 10:01:00,83.8,73.8,29.76,SSE,148,12.0,14.0,72,0.00,,,0.01,Wunderground v.1.15,2013-07-19 14:01:00,
2013-07-19 10:07:00,84.0,74.0,29.76,South,171,9.0,15.0,72,0.00,,,0.01,Wunderground v.1.15,2013-07-19 14:07:00,
2013-07-19 10:12:00,84.1,74.1,29.76,South,173,5.0,10.0,72,0.00,,,0.01,Wunderground v.1.15,2013-07-19 14:12:00,
2013-07-19 10:17:00,84.1,74.1,29.76,SE,134,5.0,16.0,72,0.00,,,0.01,Wunderground v.1.15,2013-07-19 14:17:00,
2013-07-19 10:22:00,84.7,74.7,29.76,South,185,6.0,9.0,72,0.00,,,0.01,Wunderground v.1.15,2013-07-19 14:22:00,
2013-07-19 10:27:00,84.3,74.3,29.76,SSE,162,0.0,14.0,72,0.00,,,0.01,Wunderground v.1.15,2013-07-19 14:27:00,
2013-07-19 10:32:00,84.9,74.9,29.75,SSE,163,10.0,12.0,72,0.00,,,0.01,Wunderground v.1.15,2013-07-19 14:32:00,
2013-07-19 10:37:00,85.5,74.2,29.75,SSW,192,9.0,14.0,69,0.00,,,0.01,Wunderground v.1.15,2013-07-19 14:37:00,
2013-07-19 10:42:00,85.7,73.5,29.75,South,178,10.0,14.0,67,0.00,,,0.01,Wunderground v.1.15,2013-07-19 14:42:00,
2013-07-19 10:47:00,86.1,73.9,29.75,SE,144,11.0,17.0,67,0.00,,,0.01,Wunderground v.1.15,2013-07-19 14:47:00,
2013-07-19 10:52:00,86.3,73.6,29.75,SSE,165,9.0,15.0,66,0.00,,,0.01,Wunderground v.1.15,2013-07-19 14:52:00,
2013-07-19 10:58:00,86.5,73.8,29.75,SSE,168,10.0,16.0,66,0.00,,,0.01,Wunderground v.1.15,2013-07-19 14:58:00,
2013-07-19 11:03:00,87.0,73.3,29.75,SSE,165,12.0,13.0,64,0.00,,,0.01,Wunderground v.1.15,2013-07-19 15:03:00,
2013-07-19 11:08:00,86.7,73.1,29.75,SSW,210,6.0,18.0,64,0.00,,,0.01,Wunderground v.1.15,2013-07-19 15:08:00,
2013-07-19 11:13:00,86.3,72.7,29.75,South,185,0.0,18.0,64,0.00,,,0.01,Wunderground v.1.15,2013-07-19 15:13:00,
2013-07-19 11:18:00,85.5,73.7,29.75,South,189,5.0,18.0,68,0.00,,,0.01,Wunderground v.1.15,2013-07-19 15:18:00,
2013-07-19 11:23:00,85.5,74.2,29.75,South,178,8.0,19.0,69,0.00,,,0.01,Wunderground v.1.15,2013-07-19 15:23:00,
2013-07-19 11:28:00,85.5,74.2,29.74,SSE,168,13.0,19.0,69,0.00,,,0.01,Wunderground v.1.15,2013-07-19 15:28:00,
2013-07-19 11:33:00,85.9,74.1,29.74,SSW,202,8.0,14.0,68,0.00,,,0.01,Wunderground v.1.15,2013-07-19 15:33:00,
2013-07-19 11:38:00,86.1,73.9,29.74,South,180,3.0,19.0,67,0.00,,,0.01,Wunderground v.1.15,2013-07-19 15:38:00,
2013-07-19 11:43:00,86.7,74.4,29.73,SSE,168,4.0,13.0,67,0.00,,,0.01,Wunderground v.1.15,2013-07-19 15:43:00,
2013-07-19 11:48:00,87.2,74.5,29.73,SSE,168,4.0,13.0,66,0.00,,,0.01,Wunderground v.1.15,2013-07-19 15:48:00,
2013-07-19 11:53:00,87.4,75.1,29.73,South,176,7.0,13.0,67,0.00,,,0.01,Wunderground v.1.15,2013-07-19 15:53:00,
2013-07-19 11:58:00,87.6,74.4,29.73,SSE,161,0.0,13.0,65,0.00,,,0.01,Wunderground v.1.15,2013-07-19 15:58:00,
2013-07-19 12:04:00,88.0,74.3,29.73,South,179,5.0,11.0,64,0.00,,,0.01,Wunderground v.1.15,2013-07-19 16:04:00,
2013-07-19 12:09:00,87.6,73.9,29.73,SE,146,10.0,15.0,64,0.00,,,0.01,Wunderground v.1.15,2013-07-19 16:09:00,
2013-07-19 12:14:00,88.0,75.2,29.72,SSE,165,12.0,12.0,66,0.00,,,0.01,Wunderground v.1.15,2013-07-19 16:14:00,
2013-07-19 12:19:00,88.0,75.2,29.72,SE,136,10.0,16.0,66,0.00,,,0.01,Wunderground v.1.15,2013-07-19 16:19:00,
2013-07-19 12:24:00,88.0,75.2,29.72,South,180,3.0,15.0,66,0.00,,,0.01,Wunderground v.1.15,2013-07-19 16:24:00,
2013-07-19 12:29:00,88.4,75.6,29.72,SSW,205,4.0,15.0,66,0.00,,,0.01,Wunderground v.1.15,2013-07-19 16:29:00,
2013-07-19 12:34:00,88.8,75.5,29.72,South,188,4.0,16.0,65,0.00,,,0.01,Wunderground v.1.15,2013-07-19 16:34:00,
2013-07-19 12:39:00,89.5,73.3,29.72,SW,221,0.0,16.0,59,0.00,,,0.01,Wunderground v.1.15,2013-07-19 16:39:00,
2013-07-19 12:44:00,89.9,74.6,29.70,South,191,0.0,14.0,61,0.00,,,0.01,Wunderground v.1.15,2013-07-19 16:44:00,
2013-07-19 12:49:00,90.1,73.3,29.70,South,188,11.0,16.0,58,0.00,,,0.01,Wunderground v.1.15,2013-07-19 16:49:00,
2013-07-19 12:54:00,90.7,73.4,29.70,SW,219,7.0,18.0,57,0.00,,,0.01,Wunderground v.1.15,2013-07-19 16:54:00,
2013-07-19 12:59:00,91.2,72.2,29.70,SSW,210,5.0,18.0,54,0.00,,,0.01,Wunderground v.1.15,2013-07-19 16:59:00,
2013-07-19 13:04:00,91.4,70.7,29.70,South,191,11.0,19.0,51,0.00,,,0.01,Wunderground v.1.15,2013-07-19 17:04:00,
2013-07-19 13:10:00,91.8,70.5,29.70,SW,227,0.0,10.0,50,0.00,,,0.01,Wunderground v.1.15,2013-07-19 17:10:00,
2013-07-19 13:15:00,92.1,70.2,29.69,SW,224,13.0,17.0,49,0.00,,,0.01,Wunderground v.1.15,2013-07-19 17:15:00,
2013-07-19 13:20:00,92.1,70.8,29.69,South,176,10.0,10.0,50,0.00,,,0.01,Wunderground v.1.15,2013-07-19 17:20:00,
2013-07-19 13:25:00,92.3,70.4,29.69,South,178,4.0,14.0,49,0.00,,,0.01,Wunderground v.1.15,2013-07-19 17:25:00,
2013-07-19 13:30:00,92.3,72.7,29.68,South,184,11.0,11.0,53,0.00,,,0.01,Wunderground v.1.15,2013-07-19 17:30:00,
2013-07-19 13:35:00,92.5,72.9,29.68,WSW,241,7.0,13.0,53,0.00,,,0.01,Wunderground v.1.15,2013-07-19 17:35:00,
2013-07-19 13:40:00,92.7,73.1,29.68,South,171,5.0,11.0,53,0.00,,,0.01,Wunderground v.1.15,2013-07-19 17:40:00,
2013-07-19 13:45:00,92.9,70.9,29.67,WSW,250,10.0,11.0,49,0.00,,,0.01,Wunderground v.1.15,2013-07-19 17:45:00,
2013-07-19 13:50:00,93.2,70.0,29.67,SSW,193,11.0,11.0,47,0.00,,,0.01,Wunderground v.1.15,2013-07-19 17:50:00,
2013-07-19 13:55:00,93.2,70.0,29.67,SSW,213,9.0,15.0,47,0.00,,,0.01,Wunderground v.1.15,2013-07-19 17:55:00,
2013-07-19 14:00:00,93.2,69.3,29.67,SW,234,4.0,10.0,46,0.00,,,0.01,Wunderground v.1.15,2013-07-19 18:00:00,
2013-07-19 14:05:00,93.2,69.3,29.67,SW,230,9.0,16.0,46,0.00,,,0.01,Wunderground v.1.15,2013-07-19 18:05:00,
2013-07-19 14:10:00,93.2,71.2,29.67,SW,219,0.0,4.0,49,0.00,,,0.01,Wunderground v.1.15,2013-07-19 18:10:00,
2013-07-19 14:15:00,93.4,72.0,29.66,WSW,238,9.0,10.0,50,0.00,,,0.01,Wunderground v.1.15,2013-07-19 18:15:00,
2013-07-19 14:20:00,92.7,69.5,29.66,SSW,192,2.0,7.0,47,0.00,,,0.01,Wunderground v.1.15,2013-07-19 18:20:00,
2013-07-19 14:25:00,92.7,71.3,29.66,WSW,250,6.0,14.0,50,0.00,,,0.01,Wunderground v.1.15,2013-07-19 18:25:00,
2013-07-19 14:30:00,92.7,68.9,29.65,WSW,250,19.0,21.0,46,0.00,,,0.01,Wunderground v.1.15,2013-07-19 18:30:00,
2013-07-19 14:35:00,93.6,70.3,29.65,WSW,251,0.0,21.0,47,0.00,,,0.01,Wunderground v.1.15,2013-07-19 18:35:00,
2013-07-19 14:40:00,93.2,70.0,29.65,WSW,237,4.0,11.0,47,0.00,,,0.01,Wunderground v.1.15,2013-07-19 18:40:00,
2013-07-19 14:45:00,92.9,68.4,29.64,SSW,211,7.0,14.0,45,0.00,,,0.01,Wunderground v.1.15,2013-07-19 18:45:00,
2013-07-19 14:51:00,93.2,69.3,29.64,SSW,207,7.0,7.0,46,0.00,,,0.01,Wunderground v.1.15,2013-07-19 18:51:00,
2013-07-19 14:56:00,93.2,70.0,29.64,SW,229,0.0,11.0,47,0.00,,,0.01,Wunderground v.1.15,2013-07-19 18:56:00,
2013-07-19 15:01:00,93.6,70.3,29.64,SSW,207,4.0,6.0,47,0.00,,,0.01,Wunderground v.1.15,2013-07-19 19:01:00,
2013-07-19 15:06:00,94.0,71.3,29.64,SSW,194,1.0,12.0,48,0.00,,,0.01,Wunderground v.1.15,2013-07-19 19:06:00,
2013-07-19 15:11:00,93.8,68.6,29.64,WSW,244,3.0,11.0,44,0.00,,,0.01,Wunderground v.1.15,2013-07-19 19:11:00,
2013-07-19 15:16:00,93.8,70.5,29.63,WSW,238,0.0,17.0,47,0.00,,,0.01,Wunderground v.1.15,2013-07-19 19:16:00,
2013-07-19 15:21:00,94.0,69.4,29.63,South,186,0.0,7.0,45,0.00,,,0.01,Wunderground v.1.15,2013-07-19 19:21:00,
2013-07-19 15:27:00,94.5,71.2,29.63,WSW,258,10.0,12.0,47,0.00,,,0.01,Wunderground v.1.15,2013-07-19 19:27:00,
2013-07-19 15:32:00,94.0,69.4,29.63,SW,236,4.0,11.0,45,0.00,,,0.01,Wunderground v.1.15,2013-07-19 19:32:00,
2013-07-19 15:37:00,94.3,69.0,29.63,WSW,250,5.0,12.0,44,0.00,,,0.01,Wunderground v.1.15,2013-07-19 19:37:00,
2013-07-19 15:42:00,94.5,69.9,29.63,West,267,7.0,11.0,45,0.00,,,0.01,Wunderground v.1.15,2013-07-19 19:42:00,
2013-07-19 15:47:00,94.0,70.1,29.63,SSW,195,3.0,15.0,46,0.00,,,0.01,Wunderground v.1.15,2013-07-19 19:47:00,
2013-07-19 15:52:00,93.8,71.1,29.63,South,182,7.0,7.0,48,0.00,,,0.01,Wunderground v.1.15,2013-07-19 19:52:00,
2013-07-19 15:57:00,94.0,70.7,29.63,WSW,240,5.0,17.0,47,0.00,,,0.01,Wunderground v.1.15,2013-07-19 19:57:00,
2013-07-19 16:02:00,94.3,70.3,29.63,SW,216,3.0,10.0,46,0.00,,,0.01,Wunderground v.1.15,2013-07-19 20:02:00,
2013-07-19 16:07:00,94.0,70.1,29.63,SW,219,0.0,13.0,46,0.00,,,0.01,Wunderground v.1.15,2013-07-19 20:07:00,
2013-07-19 16:12:00,94.0,70.7,29.63,West,261,6.0,12.0,47,0.00,,,0.01,Wunderground v.1.15,2013-07-19 20:12:00,
2013-07-19 16:17:00,93.6,67.7,29.62,WSW,254,13.0,13.0,43,0.00,,,0.01,Wunderground v.1.15,2013-07-19 20:17:00,
2013-07-19 16:22:00,92.7,68.2,29.62,SW,223,6.0,16.0,45,0.00,,,0.01,Wunderground v.1.15,2013-07-19 20:22:00,
2013-07-19 16:27:00,92.7,70.1,29.62,WNW,295,11.0,16.0,48,0.00,,,0.01,Wunderground v.1.15,2013-07-19 20:27:00,
2013-07-19 16:32:00,93.4,68.9,29.64,NW,306,4.0,12.0,45,0.00,,,0.01,Wunderground v.1.15,2013-07-19 20:32:00,
2013-07-19 16:37:00,93.6,69.7,29.64,WSW,246,2.0,18.0,46,0.00,,,0.01,Wunderground v.1.15,2013-07-19 20:37:00,
2013-07-19 16:42:00,93.4,68.9,29.63,West,276,6.0,14.0,45,0.00,,,0.01,Wunderground v.1.15,2013-07-19 20:42:00,
2013-07-19 16:47:00,93.4,70.2,29.63,West,273,5.0,14.0,47,0.00,,,0.01,Wunderground v.1.15,2013-07-19 20:47:00,
2013-07-19 16:52:00,93.2,70.6,29.63,West,269,5.0,11.0,48,0.00,,,0.01,Wunderground v.1.15,2013-07-19 20:52:00,
2013-07-19 16:57:00,93.4,68.9,29.63,SW,234,11.0,14.0,45,0.00,,,0.01,Wunderground v.1.15,2013-07-19 20:57:00,
2013-07-19 17:03:00,93.4,69.5,29.63,WSW,241,0.0,10.0,46,0.00,,,0.01,Wunderground v.1.15,2013-07-19 21:03:00,
2013-07-19 17:08:00,93.4,70.2,29.63,WNW,294,9.0,13.0,47,0.00,,,0.01,Wunderground v.1.15,2013-07-19 21:08:00,
2013-07-19 17:13:00,93.4,70.8,29.63,West,267,3.0,8.0,48,0.00,,,0.01,Wunderground v.1.15,2013-07-19 21:13:00,
2013-07-19 17:18:00,93.2,70.0,29.63,West,261,0.0,8.0,47,0.00,,,0.01,Wunderground v.1.15,2013-07-19 21:18:00,
2013-07-19 17:23:00,92.5,70.6,29.63,WSW,256,0.0,10.0,49,0.00,,,0.01,Wunderground v.1.15,2013-07-19 21:23:00,
2013-07-19 17:28:00,91.8,70.5,29.63,WSW,242,0.0,12.0,50,0.00,,,0.01,Wunderground v.1.15,2013-07-19 21:28:00,
2013-07-19 17:33:00,90.3,71.9,29.63,SW,224,1.0,12.0,55,0.00,,,0.02,Wunderground v.1.15,2013-07-19 21:33:00,
2013-07-19 17:38:00,88.4,72.2,29.63,WSW,244,5.0,12.0,59,0.13,,,0.03,Wunderground v.1.15,2013-07-19 21:38:00,
2013-07-19 17:43:00,88.0,70.9,29.63,South,185,7.0,14.0,57,0.10,,,0.03,Wunderground v.1.15,2013-07-19 21:43:00,
2013-07-19 17:48:00,88.6,70.9,29.63,WSW,250,10.0,16.0,56,0.05,,,0.03,Wunderground v.1.15,2013-07-19 21:48:00,
2013-07-19 17:53:00,88.8,70.0,29.63,WSW,250,0.0,9.0,54,0.04,,,0.03,Wunderground v.1.15,2013-07-19 21:53:00,
2013-07-19 17:58:00,89.3,70.5,29.63,WSW,250,7.0,12.0,54,0.00,,,0.03,Wunderground v.1.15,2013-07-19 21:58:00,
2013-07-19 18:03:00,89.3,69.9,29.63,WSW,255,5.0,10.0,53,0.00,,,0.03,Wunderground v.1.15,2013-07-19 22:03:00,
2013-07-19 18:08:00,89.5,70.7,29.63,WSW,256,3.0,11.0,54,0.00,,,0.03,Wunderground v.1.15,2013-07-19 22:08:00,
2013-07-19 18:13:00,89.5,70.7,29.63,WSW,244,0.0,14.0,54,0.00,,,0.03,Wunderground v.1.15,2013-07-19 22:13:00,
2013-07-19 18:18:00,89.7,70.8,29.63,WSW,243,9.0,14.0,54,0.00,,,0.03,Wunderground v.1.15,2013-07-19 22:18:00,
2013-07-19 18:23:00,89.9,72.1,29.63,WSW,256,1.0,5.0,56,0.00,,,0.03,Wunderground v.1.15,2013-07-19 22:23:00,
2013-07-19 18:28:00,89.9,70.5,29.64,WSW,246,8.0,14.0,53,0.00,,,0.03,Wunderground v.1.15,2013-07-19 22:28:00,
2013-07-19 18:33:00,90.1,71.2,29.64,WSW,251,1.0,6.0,54,0.00,,,0.03,Wunderground v.1.15,2013-07-19 22:33:00,
2013-07-19 18:38:00,90.1,70.7,29.64,SW,234,0.0,7.0,53,0.00,,,0.03,Wunderground v.1.15,2013-07-19 22:38:00,
2013-07-19 18:43:00,90.3,71.4,29.64,WSW,246,7.0,7.0,54,0.00,,,0.03,Wunderground v.1.15,2013-07-19 22:43:00,
2013-07-19 18:48:00,90.3,71.4,29.64,WNW,293,6.0,9.0,54,0.00,,,0.03,Wunderground v.1.15,2013-07-19 22:48:00,
2013-07-19 18:54:00,89.9,71.0,29.64,WSW,242,1.0,9.0,54,0.00,,,0.03,Wunderground v.1.15,2013-07-19 22:54:00,
2013-07-19 18:59:00,89.5,71.2,29.64,WSW,242,3.0,9.0,55,0.00,,,0.03,Wunderground v.1.15,2013-07-19 22:59:00,
2013-07-19 19:04:00,89.3,71.5,29.64,WSW,244,0.0,3.0,56,0.00,,,0.03,Wunderground v.1.15,2013-07-19 23:04:00,
2013-07-19 19:09:00,89.0,70.7,29.64,WSW,253,3.0,5.0,55,0.00,,,0.03,Wunderground v.1.15,2013-07-19 23:09:00,
2013-07-19 19:15:00,89.3,71.0,29.64,West,259,1.0,11.0,55,0.00,,,0.03,Wunderground v.1.15,2013-07-19 23:15:00,
2013-07-19 19:20:00,89.0,70.7,29.64,West,267,0.0,3.0,55,0.00,,,0.03,Wunderground v.1.15,2013-07-19 23:20:00,
2013-07-19 19:25:00,88.8,71.1,29.64,West,267,0.0,3.0,56,0.00,,,0.03,Wunderground v.1.15,2013-07-19 23:25:00,
2013-07-19 19:30:00,88.6,71.4,29.66,West,278,0.0,0.0,57,0.00,,,0.03,Wunderground v.1.15,2013-07-19 23:30:00,
2013-07-19 19:35:00,88.0,69.3,29.66,NW,318,3.0,6.0,54,0.00,,,0.03,Wunderground v.1.15,2013-07-19 23:35:00,
2013-07-19 19:40:00,87.8,69.1,29.66,NW,323,2.0,3.0,54,0.00,,,0.03,Wunderground v.1.15,2013-07-19 23:40:00,
2013-07-19 19:45:00,87.6,68.4,29.66,West,265,4.0,13.0,53,0.00,,,0.03,Wunderground v.1.15,2013-07-19 23:45:00,
2013-07-19 19:50:00,87.2,67.4,29.66,WNW,297,5.0,9.0,52,0.00,,,0.03,Wunderground v.1.15,2013-07-19 23:50:00,
2013-07-19 19:55:00,86.5,66.8,29.66,NW,304,15.0,27.0,52,0.00,,,0.03,Wunderground v.1.15,2013-07-19 23:55:00,
2013-07-19 20:00:00,83.0,66.2,29.70,NW,308,17.0,21.0,57,0.00,,,0.03,Wunderground v.1.15,2013-07-20 00:00:00,
2013-07-19 20:06:00,81.1,66.8,29.70,NNW,336,13.0,25.0,62,0.00,,,0.03,Wunderground v.1.15,2013-07-20 00:06:00,
2013-07-19 20:11:00,77.7,68.7,29.70,NW,317,0.0,16.0,74,0.00,,,0.03,Wunderground v.1.15,2013-07-20 00:11:00,
2013-07-19 20:16:00,77.0,68.1,29.68,NW,321,5.0,20.0,74,0.00,,,0.03,Wunderground v.1.15,2013-07-20 00:16:00,
2013-07-19 20:21:00,77.2,67.9,29.68,NW,312,0.0,6.0,73,0.00,,,0.03,Wunderground v.1.15,2013-07-20 00:21:00,
2013-07-19 20:26:00,77.2,67.9,29.68,NW,312,0.0,6.0,73,0.00,,,0.03,Wunderground v.1.15,2013-07-20 00:26:00,
2013-07-19 20:31:00,77.2,67.9,29.69,NW,312,0.0,1.0,73,0.00,,,0.03,Wunderground v.1.15,2013-07-20 00:31:00,
2013-07-19 20:36:00,77.4,67.7,29.69,West,260,0.0,4.0,72,0.00,,,0.03,Wunderground v.1.15,2013-07-20 00:36:00,
2013-07-19 20:41:00,77.7,67.1,29.69,West,260,0.0,1.0,70,0.00,,,0.03,Wunderground v.1.15,2013-07-20 00:41:00,
2013-07-19 20:46:00,78.1,67.1,29.67,West,260,0.0,1.0,69,0.00,,,0.03,Wunderground v.1.15,2013-07-20 00:46:00,
2013-07-19 20:51:00,78.1,67.5,29.67,West,261,3.0,3.0,70,0.00,,,0.03,Wunderground v.1.15,2013-07-20 00:51:00,
2013-07-19 20:56:00,78.1,67.1,29.67,NNW,339,0.0,11.0,69,0.00,,,0.03,Wunderground v.1.15,2013-07-20 00:56:00,
2013-07-19 21:01:00,77.9,67.3,29.69,NNW,339,0.0,2.0,70,0.00,,,0.03,Wunderground v.1.15,2013-07-20 01:01:00,
2013-07-19 21:06:00,77.7,67.1,29.69,NW,317,0.0,4.0,70,0.00,,,0.03,Wunderground v.1.15,2013-07-20 01:06:00,
2013-07-19 21:11:00,77.6,67.4,29.69,NW,317,1.0,1.0,71,0.00,,,0.03,Wunderground v.1.15,2013-07-20 01:11:00,
2013-07-19 21:16:00,77.2,67.1,29.68,NNW,334,0.0,2.0,71,0.00,,,0.03,Wunderground v.1.15,2013-07-20 01:16:00,
2013-07-19 21:21:00,76.8,67.1,29.68,NE,42,4.0,4.0,72,0.00,,,0.03,Wunderground v.1.15,2013-07-20 01:21:00,
2013-07-19 21:26:00,76.7,67.4,29.68,ENE,70,2.0,4.0,73,0.00,,,0.03,Wunderground v.1.15,2013-07-20 01:26:00,
2013-07-19 21:31:00,76.7,67.4,29.69,ENE,70,0.0,1.0,73,0.00,,,0.03,Wunderground v.1.15,2013-07-20 01:31:00,
2013-07-19 21:36:00,76.5,67.2,29.69,ENE,71,2.0,3.0,73,0.00,,,0.03,Wunderground v.1.15,2013-07-20 01:36:00,
2013-07-19 21:41:00,76.5,67.2,29.69,ENE,78,0.0,1.0,73,0.00,,,0.03,Wunderground v.1.15,2013-07-20 01:41:00,
2013-07-19 21:46:00,76.5,67.6,29.69,ENE,78,0.0,1.0,74,0.00,,,0.03,Wunderground v.1.15,2013-07-20 01:46:00,
2013-07-19 21:51:00,76.1,67.6,29.69,ENE,78,0.0,1.0,75,0.00,,,0.03,Wunderground v.1.15,2013-07-20 01:51:00,
2013-07-19 21:56:00,75.8,67.7,29.69,East,79,0.0,1.0,76,0.00,,,0.03,Wunderground v.1.15,2013-07-20 01:56:00,
2013-07-19 22:01:00,75.8,67.7,29.69,East,79,0.0,0.0,76,0.00,,,0.03,Wunderground v.1.15,2013-07-20 02:01:00,
2013-07-19 22:06:00,75.8,67.7,29.69,East,85,1.0,4.0,76,0.00,,,0.03,Wunderground v.1.15,2013-07-20 02:06:00,
2013-07-19 22:11:00,76.0,67.9,29.69,East,88,0.0,2.0,76,0.00,,,0.03,Wunderground v.1.15,2013-07-20 02:11:00,
2013-07-19 22:16:00,76.0,67.9,29.68,East,96,0.0,2.0,76,0.00,,,0.03,Wunderground v.1.15,2013-07-20 02:16:00,
2013-07-19 22:21:00,76.0,67.9,29.68,SSE,161,5.0,5.0,76,0.00,,,0.03,Wunderground v.1.15,2013-07-20 02:21:00,
2013-07-19 22:26:00,75.8,68.1,29.68,SSE,158,5.0,6.0,77,0.00,,,0.03,Wunderground v.1.15,2013-07-20 02:26:00,
2013-07-19 22:31:00,75.6,68.6,29.68,SSE,147,5.0,5.0,79,0.00,,,0.03,Wunderground v.1.15,2013-07-20 02:31:00,
2013-07-19 22:36:00,75.4,68.4,29.68,SE,125,3.0,5.0,79,0.00,,,0.03,Wunderground v.1.15,2013-07-20 02:36:00,
2013-07-19 22:41:00,75.8,68.8,29.68,ESE,114,7.0,7.0,79,0.00,,,0.03,Wunderground v.1.15,2013-07-20 02:41:00,
2013-07-19 22:46:00,76.1,68.4,29.66,ESE,115,4.0,7.0,77,0.00,,,0.03,Wunderground v.1.15,2013-07-20 02:46:00,
2013-07-19 22:51:00,76.1,68.0,29.66,ESE,115,2.0,9.0,76,0.00,,,0.03,Wunderground v.1.15,2013-07-20 02:51:00,
2013-07-19 22:56:00,76.3,68.2,29.66,SE,127,0.0,9.0,76,0.00,,,0.03,Wunderground v.1.15,2013-07-20 02:56:00,
2013-07-19 23:01:00,76.5,68.4,29.65,South,173,1.0,6.0,76,0.00,,,0.03,Wunderground v.1.15,2013-07-20 03:01:00,
2013-07-19 23:06:00,76.3,68.6,29.65,SSE,163,0.0,6.0,77,0.00,,,0.03,Wunderground v.1.15,2013-07-20 03:06:00,
2013-07-19 23:11:00,76.1,68.4,29.65,SSE,160,1.0,3.0,77,0.00,,,0.03,Wunderground v.1.15,2013-07-20 03:11:00,
2013-07-19 23:17:00,75.8,68.4,29.64,SSE,160,2.0,6.0,78,0.00,,,0.03,Wunderground v.1.15,2013-07-20 03:17:00,
2013-07-19 23:22:00,75.6,68.6,29.64,SSE,162,0.0,4.0,79,0.00,,,0.03,Wunderground v.1.15,2013-07-20 03:22:00,
2013-07-19 23:27:00,75.6,68.6,29.64,SSE,162,0.0,4.0,79,0.00,,,0.03,Wunderground v.1.15,2013-07-20 03:27:00,
2013-07-19 23:32:00,75.3,68.7,29.64,SSE,157,5.0,5.0,80,0.00,,,0.03,Wunderground v.1.15,2013-07-20 03:32:00,
2013-07-19 23:37:00,75.3,68.7,29.64,SSE,153,0.0,6.0,80,0.00,,,0.03,Wunderground v.1.15,2013-07-20 03:37:00,
2013-07-19 23:42:00,75.6,68.6,29.64,SSE,166,9.0,9.0,79,0.00,,,0.03,Wunderground v.1.15,2013-07-20 03:42:00,
2013-07-19 23:47:00,76.3,68.2,29.63,South,181,0.0,11.0,76,0.00,,,0.03,Wunderground v.1.15,2013-07-20 03:47:00,
2013-07-19 23:52:00,76.8,67.9,29.63,South,188,2.0,9.0,74,0.00,,,0.03,Wunderground v.1.15,2013-07-20 03:52:00,
2013-07-19 23:57:00,77.0,67.7,29.63,South,173,5.0,11.0,73,0.00,,,0.03,Wunderground v.1.15,2013-07-20 03:57:00,